When you browse on this site, cookies collect data to enhance your experience and personalize the content and advertising you see.
Visit our Privacy Policy to learn more. By continuing to use the site, you agree to this use of cookies and data.

Stündliche Wetter Caracas

Heute, 7 Juli, Dienstag

Zeit Temperatur Niederschläge Wind Luftdruck Luftfeuchtigkeit
00:00 +18°C° 0 mm 1 m/S 649 mmHg 94%
01:00 +18°C° 0 mm 1 m/S 649 mmHg 94%
02:00 +18°C° 0 mm 1 m/S 648 mmHg 94%
03:00 +18°C° 0 mm 1 m/S 648 mmHg 94%
04:00 +18°C° 0 mm 1 m/S 648 mmHg 93%
05:00 +18°C° 0 mm 1 m/S 648 mmHg 93%
06:00 +18°C° 0 mm 2 m/S 648 mmHg 91%
07:00 +18°C° 0 mm 2 m/S 649 mmHg 89%
08:00 +19°C° 0 mm 2 m/S 650 mmHg 87%
09:00 +20°C° 0.7 mm 2 m/S 650 mmHg 88%
10:00 +20°C° 0.7 mm 2 m/S 650 mmHg 89%
11:00 +20°C° 0.7 mm 2 m/S 650 mmHg 90%
12:00 +20°C° 1 mm 2 m/S 650 mmHg 90%
13:00 +19°C° 1 mm 2 m/S 650 mmHg 91%
14:00 +18°C° 1 mm 2 m/S 649 mmHg 92%
15:00 +18°C° 0.1 mm 2 m/S 649 mmHg 90%
16:00 +19°C° 0.1 mm 2 m/S 648 mmHg 87%
17:00 +19°C° 0.1 mm 2 m/S 648 mmHg 85%
18:00 +20°C° 0.1 mm 1 m/S 648 mmHg 86%
19:00 +19°C° 0.1 mm 1 m/S 648 mmHg 86%
20:00 +17°C° 0.1 mm 0 m/S 649 mmHg 87%
21:00 +19°C° 0 mm 1 m/S 649 mmHg 86%
22:00 +19°C° 0 mm 1 m/S 649 mmHg 85%
23:00 +18°C° 0 mm 1 m/S 649 mmHg 84%

Morgen, 8 Juli, Mittwoch

Zeit Temperatur Niederschläge Wind Luftdruck Luftfeuchtigkeit
00:00 +18°C° 0 mm 1 m/S 649 mmHg 84%
01:00 +18°C° 0 mm 1 m/S 649 mmHg 84%
02:00 +18°C° 0 mm 1 m/S 648 mmHg 84%
03:00 +19°C° 0 mm 1 m/S 648 mmHg 83%
04:00 +18°C° 0 mm 2 m/S 648 mmHg 82%
05:00 +18°C° 0 mm 2 m/S 648 mmHg 81%
06:00 +20°C° 0 mm 1 m/S 649 mmHg 78%
07:00 +20°C° 0 mm 1 m/S 649 mmHg 75%
08:00 +21°C° 0 mm 1 m/S 650 mmHg 72%
09:00 +23°C° 0 mm 2 m/S 650 mmHg 66%
10:00 +25°C° 0 mm 2 m/S 651 mmHg 60%
11:00 +26°C° 0 mm 3 m/S 651 mmHg 54%
12:00 +26°C° 0.2 mm 3 m/S 651 mmHg 55%
13:00 +27°C° 0.2 mm 3 m/S 650 mmHg 57%
14:00 +27°C° 0.2 mm 3 m/S 650 mmHg 58%
15:00 +26°C° 0.6 mm 3 m/S 649 mmHg 65%
16:00 +25°C° 0.6 mm 3 m/S 649 mmHg 72%
17:00 +24°C° 0.6 mm 3 m/S 648 mmHg 79%
18:00 +21°C° 0.1 mm 3 m/S 648 mmHg 83%
19:00 +20°C° 0.1 mm 3 m/S 648 mmHg 87%
20:00 +18°C° 0.1 mm 3 m/S 648 mmHg 91%
21:00 +18°C° 0 mm 3 m/S 648 mmHg 92%
22:00 +17°C° 0 mm 3 m/S 648 mmHg 93%
23:00 +17°C° 0 mm 3 m/S 649 mmHg 93%

übermorgen, 9 Juli, Donnerstag

Zeit Temperatur Niederschläge Wind Luftdruck Luftfeuchtigkeit
00:00 +17°C° 0 mm 2 m/S 648 mmHg 94%
01:00 +17°C° 0 mm 2 m/S 648 mmHg 94%
02:00 +17°C° 0 mm 2 m/S 648 mmHg 94%
03:00 +17°C° 0 mm 2 m/S 648 mmHg 94%
04:00 +17°C° 0 mm 2 m/S 648 mmHg 93%
05:00 +17°C° 0 mm 2 m/S 648 mmHg 93%
06:00 +18°C° 0 mm 2 m/S 649 mmHg 92%
07:00 +18°C° 0 mm 2 m/S 649 mmHg 91%
08:00 +19°C° 0 mm 2 m/S 650 mmHg 89%
09:00 +21°C° 0 mm 2 m/S 650 mmHg 77%
10:00 +22°C° 0 mm 3 m/S 651 mmHg 65%
11:00 +25°C° 0 mm 3 m/S 651 mmHg 54%
12:00 +26°C° 0 mm 4 m/S 651 mmHg 51%
13:00 +26°C° 0 mm 4 m/S 651 mmHg 49%
14:00 +27°C° 0 mm 4 m/S 650 mmHg 47%
15:00 +26°C° 0 mm 4 m/S 650 mmHg 51%
16:00 +25°C° 0 mm 4 m/S 649 mmHg 55%
17:00 +24°C° 0 mm 3 m/S 649 mmHg 59%
18:00 +21°C° 0 mm 3 m/S 648 mmHg 69%
19:00 +19°C° 0 mm 3 m/S 648 mmHg 79%
20:00 +17°C° 0 mm 2 m/S 648 mmHg 88%
21:00 +17°C° 0 mm 2 m/S 648 mmHg 89%
22:00 +17°C° 0 mm 2 m/S 649 mmHg 90%
23:00 +16°C° 0 mm 2 m/S 649 mmHg 91%

10 Juli, Freitag

Zeit Temperatur Niederschläge Wind Luftdruck Luftfeuchtigkeit
00:00 +16°C° 0 mm 2 m/S 649 mmHg 91%
01:00 +16°C° 0 mm 2 m/S 649 mmHg 92%
02:00 +16°C° 0 mm 2 m/S 648 mmHg 92%
03:00 +16°C° 0 mm 2 m/S 648 mmHg 92%
04:00 +16°C° 0 mm 2 m/S 648 mmHg 92%
05:00 +16°C° 0 mm 2 m/S 648 mmHg 92%
06:00 +17°C° 0 mm 2 m/S 649 mmHg 89%
07:00 +18°C° 0 mm 2 m/S 650 mmHg 86%
08:00 +19°C° 0 mm 2 m/S 650 mmHg 83%
09:00 +21°C° 0 mm 2 m/S 651 mmHg 76%
10:00 +22°C° 0 mm 3 m/S 651 mmHg 68%
11:00 +25°C° 0 mm 3 m/S 652 mmHg 60%
12:00 +25°C° 0.3 mm 3 m/S 651 mmHg 63%
13:00 +25°C° 0.3 mm 3 m/S 651 mmHg 66%
14:00 +24°C° 0.3 mm 3 m/S 650 mmHg 69%
15:00 +22°C° 1 mm 3 m/S 650 mmHg 76%
16:00 +21°C° 1 mm 3 m/S 649 mmHg 83%
17:00 +20°C° 1 mm 3 m/S 648 mmHg 90%
18:00 +19°C° 0.4 mm 3 m/S 649 mmHg 92%
19:00 +19°C° 0.4 mm 3 m/S 649 mmHg 93%
20:00 +18°C° 0.4 mm 3 m/S 649 mmHg 94%
21:00 +18°C° 0 mm 3 m/S 649 mmHg 94%
22:00 +17°C° 0 mm 2 m/S 649 mmHg 94%
23:00 +17°C° 0 mm 2 m/S 650 mmHg 94%

11 Juli, Samstag

Zeit Temperatur Niederschläge Wind Luftdruck Luftfeuchtigkeit
00:00 +17°C° 0 mm 2 m/S 649 mmHg 94%
01:00 +17°C° 0 mm 2 m/S 649 mmHg 94%
02:00 +17°C° 0 mm 2 m/S 648 mmHg 94%
03:00 +17°C° 0.4 mm 2 m/S 648 mmHg 94%
04:00 +17°C° 0.4 mm 2 m/S 648 mmHg 94%
05:00 +17°C° 0.4 mm 2 m/S 648 mmHg 94%
06:00 +17°C° 0.1 mm 2 m/S 648 mmHg 94%
07:00 +18°C° 0.1 mm 2 m/S 649 mmHg 93%
08:00 +18°C° 0.1 mm 2 m/S 649 mmHg 92%
09:00 +19°C° 0.5 mm 2 m/S 650 mmHg 90%
10:00 +20°C° 0.5 mm 2 m/S 650 mmHg 88%
11:00 +21°C° 0.5 mm 2 m/S 650 mmHg 86%
12:00 +21°C° 1.8 mm 2 m/S 650 mmHg 86%
13:00 +21°C° 1.8 mm 2 m/S 650 mmHg 87%
14:00 +23°C° 1.8 mm 2 m/S 649 mmHg 87%
15:00 +21°C° 1.6 mm 2 m/S 649 mmHg 89%
16:00 +21°C° 1.6 mm 2 m/S 648 mmHg 90%
17:00 +20°C° 1.6 mm 2 m/S 648 mmHg 91%
18:00 +20°C° 0.6 mm 2 m/S 648 mmHg 92%
19:00 +19°C° 0.6 mm 2 m/S 648 mmHg 93%
20:00 +18°C° 0.6 mm 2 m/S 648 mmHg 94%
21:00 +18°C° 0.1 mm 2 m/S 648 mmHg 94%
22:00 +17°C° 0.1 mm 2 m/S 648 mmHg 94%
23:00 +17°C° 0.1 mm 2 m/S 649 mmHg 94%

12 Juli, Sonntag

Zeit Temperatur Niederschläge Wind Luftdruck Luftfeuchtigkeit
00:00 +17°C° 0.6 mm 2 m/S 648 mmHg 94%
01:00 +17°C° 0.6 mm 2 m/S 648 mmHg 94%
02:00 +17°C° 0.6 mm 2 m/S 648 mmHg 95%
03:00 +17°C° 0.3 mm 2 m/S 648 mmHg 95%
04:00 +17°C° 0.3 mm 2 m/S 647 mmHg 94%
05:00 +18°C° 0.3 mm 1 m/S 647 mmHg 94%
06:00 +18°C° 0.3 mm 1 m/S 648 mmHg 94%
07:00 +19°C° 0.3 mm 1 m/S 649 mmHg 93%
08:00 +19°C° 0.3 mm 1 m/S 649 mmHg 93%
09:00 +18°C° 0.6 mm 2 m/S 649 mmHg 93%
10:00 +18°C° 0.6 mm 2 m/S 649 mmHg 94%
11:00 +18°C° 0.6 mm 2 m/S 650 mmHg 94%
12:00 +20°C° 0.1 mm 2 m/S 650 mmHg 86%
13:00 +21°C° 0.1 mm 2 m/S 649 mmHg 78%
14:00 +24°C° 0.1 mm 2 m/S 649 mmHg 71%
15:00 +24°C° 0.2 mm 2 m/S 649 mmHg 72%
16:00 +23°C° 0.2 mm 1 m/S 649 mmHg 72%
17:00 +23°C° 0.2 mm 1 m/S 648 mmHg 73%
18:00 +21°C° 0.2 mm 2 m/S 648 mmHg 79%
19:00 +19°C° 0.2 mm 2 m/S 648 mmHg 84%
20:00 +18°C° 0.2 mm 2 m/S 648 mmHg 90%
21:00 +18°C° 0.4 mm 2 m/S 649 mmHg 91%
22:00 +17°C° 0.4 mm 2 m/S 649 mmHg 91%
23:00 +17°C° 0.4 mm 2 m/S 650 mmHg 92%
Mehr zeigen